date,batt_volt,AirTemp_C,Solar_kW,RH,Manual_BP,StationID,WS_ms,PTemp,WS_15min_max,Prog_Sig,Solar_Raw,Bar_mbar,Solar_MJ,Max_WS_2min,Pressure_Raw,Rain_mm,WD_15min_ave,Max_AirTemp_1min,WindDir,WS_15min_med,WS_15min_ave,Elevation_Correction
2021-04-01T00:11:54Z,13.3322,13.01695,0.0,61.69492,0,1156,3.1556,10.9707,5.0568,43690,0.0,1018.452,0.0,4.155,1016.651,0,231.874236459,13.05,220.461,3.6946,3.62196470588,1.80078
2021-04-01T00:26:55Z,13.32116,12.47401,0.0,64.77896,0,1156,3.5476,11.26666,6.5268,43690,0.0,1018.452,0.0,5.214,1016.651,0,232.235876259,12.61,227.5345,4.3512,4.25033450292,1.80078
2021-04-01T00:41:55Z,13.32011,12.57234,0.0,65.48663,0,1156,4.3708,11.44966,6.272,43690,0.0,1018.452,0.0,4.724,1016.651,0,233.440204713,12.61,228.4585,4.0376,4.09075058824,1.80078
2021-04-01T00:56:56Z,13.31989,12.73997,0.0,66.02664,0,1156,3.7044,11.56488,5.3312,43690,0.0,1018.452,0.0,4.763,1016.651,0,225.160994942,12.94,219.6426,3.6652,3.59959764706,1.80078
2021-04-01T01:11:53Z,13.31306,11.78814,0.0,68.87009,0,1156,1.666,11.65525,4.7824,43690,0.0,1017.807,0.0,3.43,1016.007,0,216.255716523,12.16,142.6505,2.5676,2.57131124201,1.80078
2021-04-01T01:26:54Z,13.3189,9.889354,0.0,72.86829,0,1156,2.7832,11.61007,3.822,43690,0.0,1017.807,0.0,3.822,1016.007,0,128.116232571,10.13,110.8364,1.6464,1.72340827988,1.80078
2021-04-01T01:41:57Z,13.33162,8.673569,0.0,78.77254,0,1156,3.4496,11.26666,4.6648,43690,0.0,1017.807,0.0,4.547,1016.007,0,110.680792019,8.74,106.3941,3.2732,3.28288470588,1.80078
2021-04-01T01:56:55Z,13.34318,7.491417,0.0,83.15235,0,1156,4.1552,10.81029,5.6644,43690,0.0,1017.807,0.0,5.018,1016.007,0,110.193609839,7.593001,112.4204,4.214,4.16644970414,1.80078
2021-04-01T02:11:55Z,13.35429,8.101696,0.0,83.72882,0,1156,2.4892,10.20029,4.0572,43690,0.0,1017.8,0.0,3.312,1016.0,0,109.921267974,7.932,176.2485,2.45,2.42993609231,1.80078
2021-04-01T02:26:56Z,13.36533,8.203388,0.0,83.66102,0,1156,2.0384,9.750698,3.3908,43690,0.0,1017.8,0.0,1.999,1016.0,0,119.88213148,8.439999,135.7424,1.9796,1.97472899231,1.80078
2021-04-01T02:41:55Z,13.36533,9.830509,0.0,81.01695,0,1156,0.0196,9.705517,4.6452,43690,0.0,1017.8,0.0,3.606,1016.0,0,203.25953853,10.14,165.3939,1.7444,1.90444733491,1.80078
2021-04-01T02:56:59Z,13.35429,10.33898,0.0,81.8305,0,1156,2.4304,9.883999,4.8412,43690,0.0,1017.8,0.0,3.704,1016.0,0,221.285593756,10.61,189.2691,2.401,2.38059293882,1.80078
2021-04-01T03:11:58Z,13.34325,10.98305,0.0,80.84746,0,1156,2.9792,10.22288,5.0176,43690,0.0,1017.475,0.0,4.488,1015.675,0,225.442769089,11.15,244.8176,3.0184,3.02535857929,1.80078
2021-04-01T03:26:57Z,13.33773,11.42373,0.0,80.44068,0,1156,3.626,10.62955,6.0172,43690,0.0,1017.475,0.0,6.017,1015.675,0,228.561653585,11.42,231.46,3.1948,3.14458224852,1.80078
2021-04-01T03:42:01Z,13.3322,10.74576,0.0,81.69491,0,1156,2.4108,10.9481,4.9,43690,0.0,1017.475,0.0,3.214,1015.675,0,234.020034621,10.92,231.2434,2.744,2.75771999882,1.80078
2021-04-01T03:56:59Z,13.3322,10.0,0.0,85.15254,0,1156,4.2336,11.01588,4.7236,43690,0.0,1017.475,0.0,2.274,1015.675,0,249.059438333,9.9,233.0966,2.0384,2.09534437811,1.80078
2021-04-01T04:11:57Z,13.3322,10.40678,0.0,83.93221,0,1156,3.3712,10.9481,5.5468,43690,0.0,1016.255,0.0,4.39,1014.454,0,235.818729797,10.47,237.5973,3.3908,3.27082330178,1.80078
2021-04-01T04:27:01Z,13.3322,10.71186,0.0,82.88135,0,1156,3.528,10.92551,5.7232,43690,0.0,1016.255,0.0,5.723,1014.454,0,232.545343951,10.78,217.5007,3.3026,3.39160705882,1.80078
2021-04-01T04:41:59Z,13.3322,10.71186,0.0,83.35594,0,1156,2.9792,11.01588,5.684,43690,0.0,1016.255,0.0,3.018,1014.454,0,234.409480811,10.75,113.8888,2.548,2.62547218817,1.80078
2021-04-01T04:56:58Z,13.33773,8.745762,0.0,87.49152,0,1156,3.724,10.90066,5.0568,43690,0.0,1016.255,0.0,4.782,1014.454,0,111.539166945,9.019999,109.8695,3.8612,3.65870532544,1.80078
2021-04-01T05:12:02Z,13.34876,8.271187,0.0,88.94915,0,1156,4.2532,10.58436,5.5076,43690,0.0,1016.174,0.0,5.508,1014.373,0,112.151659549,8.37,104.2376,3.9298,3.82684235294,1.80078
2021-04-01T05:26:59Z,13.35981,8.135594,0.0,89.8983,0,1156,5.39,10.20029,6.4484,43690,0.0,1016.174,0.0,5.782,1014.373,0,107.569491038,8.2,101.181,5.2332,5.17532781065,1.80078
2021-04-01T05:42:02Z,13.36533,8.101696,0.0,90.44068,0,1156,6.1544,9.883999,6.5464,43690,0.0,1016.174,0.0,6.056,1014.373,0,110.689660991,8.2,109.8454,5.2234,5.17232470588,1.80078
2021-04-01T05:56:59Z,13.36533,7.898304,0.0,90.74577,0,1156,4.7236,9.660328,6.6052,43690,0.0,1016.174,0.0,6.174,1014.373,0,106.805595454,8.07,117.0658,5.6252,5.52569229586,1.80078
2021-04-01T06:12:03Z,13.37637,7.661018,0.0,91.25423,0,1156,5.7428,9.459255,7.5068,43690,0.0,1014.953,0.0,6.527,1013.153,0,105.930073707,7.729001,105.4892,5.7134,5.67523764706,1.80078
2021-04-01T06:26:59Z,13.37742,7.934197,0.0,91.42753,0,1156,5.6448,9.301113,6.3504,43690,0.0,1014.953,0.0,5.998,1013.153,0,108.055277376,8.099999,100.4632,5.1548,5.15746745562,1.80078
2021-04-01T06:42:02Z,13.37782,7.868885,0.0,91.22886,0,1156,5.782,9.258182,6.5268,43690,0.0,1014.953,0.0,6.037,1013.153,0,107.170120313,7.938,111.8776,5.3998,5.26778822941,1.80078
2021-04-01T06:57:03Z,13.37801,7.735622,0.0,91.19945,0,1156,5.39,9.19041,6.3308,43690,0.0,1014.953,0.0,6.586,1013.153,0,110.406671941,7.871,112.7015,5.5272,5.48454117647,1.80078
2021-04-01T07:12:04Z,13.38457,7.600902,0.0,91.37068,0,1156,5.2528,9.079701,6.6248,43690,0.0,1014.709,0.0,6.39,1012.909,0,110.691780014,7.771,109.0688,5.5174,5.46943764118,1.80078
2021-04-01T07:27:00Z,13.38552,7.16531,0.0,91.92318,0,1156,5.488,8.944149,6.6052,43690,0.0,1014.709,0.0,5.841,1012.909,0,107.280488707,7.301,91.57867,5.7232,5.6175455503,1.80078
2021-04-01T07:42:04Z,13.39163,7.235981,0.0,92.30175,0,1156,5.6252,8.790523,6.468,43690,0.0,1014.709,0.0,6.468,1012.909,0,107.692509245,7.270001,111.7838,5.5174,5.46032941176,1.80078
2021-04-01T07:57:05Z,13.39194,7.711078,0.0,92.37028,0,1156,5.6448,8.700154,6.566,43690,0.0,1014.709,0.0,6.115,1012.909,0,106.494404126,7.609,109.1845,5.4096,5.38942352941,1.80078
2021-04-01T08:12:02Z,13.38642,8.151909,0.0,92.099,0,1156,5.4488,8.722744,6.2916,43690,0.0,1013.825,0.0,6.017,1012.024,0,105.659290632,8.08,110.4123,5.0568,4.98825798817,1.80078
2021-04-01T08:27:04Z,13.39195,8.084087,0.0,91.65818,0,1156,5.684,8.810856,6.1152,43690,0.0,1013.825,0.0,6.115,1012.024,0,106.117150693,8.25,115.9739,5.1646,5.09311764706,1.80078
2021-04-01T08:42:06Z,13.38642,7.913727,0.0,91.58881,0,1156,4.4688,8.901226,7.2912,43690,0.0,1013.825,0.0,5.939,1012.024,0,100.729603046,8.019999,98.22822,5.1646,5.16125646471,1.80078
2021-04-01T08:57:02Z,13.38624,7.845451,0.0,92.09657,0,1156,4.9392,8.901226,7.212799,43690,0.0,1013.825,0.0,5.841,1012.024,0,104.489902011,7.914001,102.1034,5.39,5.42200944379,1.80078
2021-04-01T09:12:04Z,13.38635,8.185791,0.0,91.8955,0,1156,4.9392,8.901226,6.2916,43690,0.0,1012.436,0.0,6.017,1010.635,0,104.883967473,8.15,123.5336,5.2136,5.20011058824,1.80078
2021-04-01T09:27:05Z,13.38609,8.285896,0.0,91.58722,0,1156,6.664,8.96674,7.7028,43690,0.0,1012.436,0.0,7.311,1010.635,0,109.020548098,8.389999,109.1085,5.831,5.80494348235,1.80078
2021-04-01T09:42:06Z,13.38555,8.455452,0.0,91.62115,0,1156,7.1932,9.05711,8.8004,43690,0.0,1012.436,0.0,7.781,1010.635,0,112.79630342,8.59,111.6364,6.2426,6.29828699412,1.80078
2021-04-01T09:57:03Z,13.38447,8.383694,0.0004823732,91.88494,0,1156,6.5856,9.167812,8.9964,43690,0.03376612,1012.436,2.411866e-06,8.09,1010.635,0,111.424424051,8.38,108.6182,6.8404,6.69044246154,1.80078
2021-04-01T10:12:06Z,13.3837,7.430485,0.00530601,92.48774,0,1156,6.1152,9.167812,9.0356,43690,0.3714207,1012.285,2.653005e-05,6.468,1010.484,0,106.835715128,7.533001,122.4985,6.1838,6.25182344706,1.80078
2021-04-01T10:27:04Z,13.39037,8.010502,0.006270759,93.10511,0,1156,6.7032,9.034519,8.741599,43690,0.4389531,1012.285,3.135379e-05,7.918,1010.484,0,108.169895679,8.08,113.7693,6.6836,6.67652529586,1.80078
2021-04-01T10:42:06Z,13.39086,8.382801,0.0202606,93.23946,0,1156,6.958,9.034519,8.486799,43690,1.418242,1012.285,0.000101303,8.49,1010.484,0,109.080690158,8.519999,104.6682,6.419,6.4109293,1.80078
2021-04-01T10:57:04Z,13.38493,8.112042,0.03183625,93.13867,0,1156,6.6836,9.122631,8.427999,43690,2.228537,1012.285,0.0001591812,8.429999,1010.484,0,109.160016054,8.28,106.884,6.7228,6.70505549112,1.80078
2021-04-01T11:12:08Z,13.37841,8.550808,0.1210736,93.50777,0,1156,4.9392,9.19041,8.526,43690,8.475153,1011.391,0.000605368,7.742001,1009.59,0,111.431660446,8.59,119.0841,6.4778,6.4542799,1.80078
2021-04-01T11:27:05Z,13.3715,8.378861,0.0352126,93.02845,0,1156,5.7428,9.368885,8.741599,43690,2.464882,1011.391,0.000176063,6.88,1009.59,0,107.596605209,8.45,107.4038,5.8604,6.04399047929,1.80078
2021-04-01T11:42:08Z,13.37654,7.83168,0.02990659,93.05313,0,1156,3.7828,9.414074,8.5064,43690,2.093461,1011.391,0.000149533,6.546,1009.59,0,105.386834457,8.139999,104.7215,5.3802,5.45237409412,1.80078
2021-04-01T11:57:06Z,13.3833,7.49691,0.04582462,94.11237,0,1156,4.9784,9.167812,6.762,43690,3.207723,1011.391,0.0002291231,6.37,1009.59,0,104.128343879,7.259,95.92104,4.9588,4.97294910651,1.80078
2021-04-01T12:12:05Z,13.38979,7.397476,0.07621357,94.18469,0,1156,4.2728,9.079701,7.448,43690,5.33495,1010.285,0.0003810678,6.311,1008.484,0,100.41671109,7.499001,99.22346,5.3704,5.25836684615,1.80078
2021-04-01T12:27:04Z,13.39053,7.771698,0.05595621,94.52626,0,1156,5.5272,9.079701,7.114799,43690,3.916935,1010.285,0.0002797811,6.684,1008.484,0,102.945093378,8.01,104.7868,5.3704,5.30638104734,1.80078
2021-04-01T12:42:04Z,13.38468,8.347679,0.07814395,94.7289,0,1156,5.88,9.167812,7.546,43690,5.470076,1010.285,0.0003907197,7.213,1008.484,0,109.551404917,8.42,106.0136,5.8212,5.80913843787,1.80078
2021-04-01T12:57:09Z,13.37267,8.276657,0.1963223,94.51918,0,1156,6.5464,9.346294,8.7612,43690,13.74256,1010.285,0.0009816115,8.189999,1008.484,0,109.50697988,8.41,109.1117,6.2916,6.32319051765,1.80078
2021-04-01T13:12:06Z,13.36551,8.442146,0.0824843,94.20625,0,1156,6.86,9.569958,8.212401,43690,5.773902,1009.227,0.0004124215,8.059999,1007.427,0,107.819454583,8.58,106.3107,7.0658,6.99276645238,1.80078
2021-04-01T13:27:07Z,13.36534,8.034034,0.1307207,94.20366,0,1156,7.9772,9.637738,9.1924,43690,9.150452,1009.227,0.0006536037,8.47,1007.427,0,104.376557481,8.07,101.3257,7.2912,7.38908383432,1.80078
2021-04-01T13:42:06Z,13.37085,8.677986,0.1119085,94.23733,0,1156,7.4088,9.592556,10.4076,43690,7.833597,1009.227,0.0005595427,9.41,1007.427,0,108.548211597,8.71,98.55766,7.8008,7.77737256805,1.80078
2021-04-01T13:57:08Z,13.35981,9.593242,0.07862539,92.44072,0,1156,8.3692,9.750698,8.7808,43690,5.503778,1009.227,0.000393127,7.918,1007.427,0,110.375755377,9.729999,108.1126,6.8992,6.9038665873,1.80078
2021-04-01T14:12:07Z,13.36533,8.813579,0.1210735,92.54241,0,1156,7.6832,9.83881,9.016,43690,8.475142,1008.282,0.0006053673,8.84,1006.482,0,107.043818221,8.95,101.5421,7.3304,7.3477962071,1.80078
2021-04-01T14:27:06Z,13.36533,9.62714,0.07331939,92.61021,0,1156,8.1732,9.861408,8.8984,43690,5.132357,1008.282,0.0003665969,8.84,1006.482,0,105.124137968,9.689999,102.3604,7.212799,7.19621517751,1.80078
2021-04-01T14:42:06Z,13.35981,10.23731,0.03907152,89.89834,0,1156,5.0764,10.06474,8.7024,43690,2.735006,1008.282,0.0001953576,7.232,1006.482,0,112.107876659,10.27,112.517,6.5856,6.46336088757,1.80078
2021-04-01T14:57:10Z,13.35429,10.94918,0.02894186,87.32207,0,1156,4.5668,10.26807,8.7612,43690,2.02593,1008.282,0.0001447093,6.605,1006.482,0,112.836653124,10.98,119.4245,5.4978,5.54852932353,1.80078
2021-04-01T15:12:08Z,13.33773,12.13562,0.08007249,82.88139,0,1156,1.274,10.67473,8.5456,43690,5.605074,1007.387,0.0004003624,7.193,1005.587,0,108.845519904,12.24,138.3177,4.6648,4.57758578107,1.80078
2021-04-01T15:27:07Z,13.32669,13.11867,0.05209535,81.35597,0,1156,4.1356,11.26666,8.0164,43690,3.646675,1007.387,0.0002604767,6.723001,1005.587,0,50.520062431,13.12,6.835257,2.8028,2.89627692249,1.80078
2021-04-01T15:42:11Z,13.32005,10.97739,0.1528659,85.38034,0,1156,0.9995999,11.63266,5.7428,43690,10.70062,1007.387,0.0007643296,2.685,1005.587,0,59.0216323842,11.32,56.5771,2.2442,2.40342117647,1.80078
2021-04-01T15:57:12Z,13.31894,10.97367,0.2333861,89.10225,0,1156,3.7828,11.63266,5.096,43690,16.33703,1007.387,0.00116693,4.528,1005.587,0,93.234887554,10.57,76.97872,2.2148,2.24990632722,1.80078
2021-04-01T16:12:10Z,13.31891,10.73688,0.1412851,89.47586,0,1156,2.9204,11.77047,6.0368,43690,9.889954,1005.745,0.0007064252,3.842,1003.944,0,86.1786773386,11.01,76.06498,2.9792,2.85846863787,1.80078
2021-04-01T16:27:13Z,13.31891,10.4653,0.08727848,92.11866,0,1156,8.2908,11.6801,8.3104,43690,6.109493,1005.745,0.0004363924,8.679999,1003.944,0,80.6590470435,10.57,86.02657,2.9204,3.06428705706,1.80078
2021-04-01T16:42:12Z,13.32964,10.16321,0.06268688,93.27645,0,1156,4.4296,11.47225,9.8784,43690,4.388082,1005.745,0.0003134344,9.88,1003.944,0,93.2591314005,10.3,57.68328,6.0956,6.02299871006,1.80078
2021-04-01T16:57:10Z,13.33162,10.13388,0.05353698,93.99679,0,1156,5.096,11.31184,8.055599,43690,3.747589,1005.745,0.0002676849,5.116,1003.944,0,87.9735993946,10.3,120.3589,3.5672,3.71205441302,1.80078
2021-04-01T17:12:11Z,13.33219,10.64346,0.06174068,94.54124,0,1156,3.1752,11.22148,6.762,43690,4.321848,1004.614,0.0003087034,5.566,1002.813,0,67.3042316047,10.71,36.53447,2.4696,2.80175621006,1.80078
2021-04-01T17:27:10Z,13.33184,10.91456,0.05788085,94.47329,0,1156,3.6848,11.26666,6.1544,43690,4.05166,1004.614,0.0002894042,5.174,1002.813,0,69.6337163231,10.98,67.3889,2.9008,2.85313372663,1.80078
2021-04-01T17:42:13Z,13.33219,10.44067,0.04340929,94.40676,0,1156,0.9604,11.28925,6.2328,43690,3.038651,1004.614,0.0002170465,4.665,1002.813,0,63.960347319,10.58,71.48134,2.548,2.55722352529,1.80078
2021-04-01T17:57:11Z,13.33184,10.40678,0.03665828,94.40678,0,1156,4.4884,11.22148,7.996799,43690,2.566079,1004.614,0.0001832914,6.762,1002.813,0,88.2180211042,10.44,85.84983,3.6652,3.71101064497,1.80078
2021-04-01T18:12:11Z,13.33219,10.33898,0.03858888,94.40678,0,1156,0.5488,11.15144,6.7228,43690,2.701222,1003.564,0.0001929444,4.292,1001.763,0,85.6713969189,10.41,335.7217,2.9792,3.03034556095,1.80078
2021-04-01T18:27:15Z,13.3322,11.01695,0.04485987,94.23729,0,1156,2.4304,11.19888,4.9588,43690,3.140191,1003.564,0.0002242993,4.959,1001.763,0,67.1783959827,11.05,54.05627,2.2638,2.29861882235,1.80078
2021-04-01T18:42:15Z,13.3322,10.67792,0.04630424,93.83042,0,1156,5.7232,11.26666,5.9976,43690,3.241297,1003.564,0.0002315212,5.449,1001.763,0,88.1812232274,10.81,43.10538,2.8224,2.94417514734,1.80078
2021-04-01T18:57:14Z,13.33773,8.338818,0.04196326,93.69459,0,1156,2.8616,11.08366,7.7812,43690,2.937428,1003.564,0.0002098163,5.037,1001.763,0,91.613887221,8.61,123.1064,3.234,3.43289940237,1.80078
2021-04-01T19:12:14Z,13.34876,9.661018,0.04727163,94.40678,0,1156,0.4508,10.74251,5.4488,43690,3.309014,1002.586,0.0002363581,6.096,1000.786,0,87.7689631969,9.729999,41.7817,2.7636,2.65956922899,1.80078
2021-04-01T19:27:13Z,13.34876,10.20339,0.02797712,93.93221,0,1156,2.7244,10.69733,5.194,43690,1.958398,1002.586,0.0001398856,3.077,1000.786,0,79.1452120453,10.2,103.1786,2.3912,2.37113609231,1.80078
2021-04-01T19:42:13Z,13.34325,10.94915,0.03424786,93.22034,0,1156,3.0968,10.81029,3.9788,43690,2.39735,1002.586,0.0001712393,3.312,1000.786,0,44.2336097756,11.02,66.37898,1.6856,1.7530982213,1.80078
2021-04-01T19:57:13Z,13.3322,11.49152,0.02845949,92.27118,0,1156,1.764,11.01588,4.9392,43690,1.992164,1002.586,0.0001422974,3.744,1000.786,0,31.4347383104,11.59,15.04237,2.1952,2.1617988142,1.80078
2021-04-01T20:12:14Z,13.3322,11.52543,0.02508294,91.79661,0,1156,2.2736,11.26666,4.9392,43690,1.755805,1001.611,0.0001254147,4.351,999.8102,0,28.9987508248,11.66,16.12542,2.0972,2.0400236645,1.80078
2021-04-01T20:27:17Z,13.32116,11.25232,0.0106104,92.23384,0,1156,1.666,11.44966,4.3708,43690,0.7427278,1001.611,5.305199e-05,4.371,999.8102,0,38.0106866022,11.46,142.5242,1.7444,1.84785088107,1.80078
2021-04-01T20:42:13Z,13.33719,8.336254,0.01832559,93.14728,0,1156,4.1748,11.26666,7.742,43690,1.282791,1001.611,9.162796e-05,7.291,999.8102,0,95.6337516443,8.51,104.9297,4.2434,4.19906665476,1.80078
2021-04-01T20:57:16Z,13.35426,7.830459,0.01254134,94.61005,0,1156,2.9596,10.58436,9.702,43690,0.8778938,1001.611,6.270671e-05,6.978,999.8102,0,97.4934230089,8.0,114.2737,6.664,6.2544874497,1.80078
2021-04-01T21:12:17Z,13.36533,8.101696,0.01157674,95.11865,0,1156,5.6056,10.10992,6.6836,43690,0.8103718,1001.448,5.788369e-05,5.155,999.6472,0,100.385121584,8.439999,109.4363,3.8416,3.8363810645,1.80078
2021-04-01T21:27:21Z,13.37637,9.661018,0.0135062,95.66102,0,1156,3.332,9.861408,6.762,43690,0.9454338,1001.448,6.753098e-05,2.842,999.6472,0,99.7701189964,10.2,13.26136,2.2736,2.52692328699,1.80078
2021-04-01T21:42:21Z,13.35981,11.08475,0.0376244,95.8305,0,1156,1.5484,10.13251,3.4888,43690,2.633708,1001.448,0.000188122,2.705,999.6472,0,87.0204037292,11.05,0.9627118,1.4994,1.48264515968,1.80078
2021-04-01T21:57:19Z,13.34876,9.966102,0.01640038,94.67796,0,1156,1.6072,10.58436,4.802,43690,1.148027,1001.448,8.20019e-05,4.155,999.6472,0,78.7899342113,10.47,103.5156,1.568,1.64603925828,1.80078
2021-04-01T22:12:20Z,13.34325,11.38983,0.01832984,95.22034,0,1156,0.6272,10.7877,3.1556,43690,1.283089,1000.635,9.164919e-05,2.764,998.8338,0,73.1822585401,11.49,38.4122,1.2936,1.3028781,1.80078
2021-04-01T22:27:17Z,13.3322,12.0339,0.00578837,95.05085,0,1156,2.3716,11.12884,4.4688,43690,0.4051859,1000.635,2.894185e-05,2.509,998.8338,0,156.237822924,12.03,224.3359,0.9015999,1.04766665893,1.80078
2021-04-01T22:42:22Z,13.32668,11.32148,0.001447078,93.99898,0,1156,2.3716,11.44966,5.2528,43690,0.1012955,1000.635,7.23539e-06,2.019,998.8338,0,88.6059875495,11.59,92.34714,1.2936,1.36005443254,1.80078
2021-04-01T22:57:21Z,13.33135,9.217804,0.0004822145,93.96126,0,1156,2.9792,11.40448,4.3512,43690,0.03375502,1000.635,2.411072e-06,2.411,998.8338,0,89.4695097936,9.28,114.8215,1.9404,2.02993372308,1.80078
2021-04-01T23:12:22Z,13.34309,10.3045,0.0,94.84635,0,1156,1.8816,11.03847,4.2532,43690,0.0,1000.605,0.0,4.253,998.8038,0,98.132140908,10.13,85.8729,2.0972,2.13118106391,1.80078
2021-04-01T23:27:17Z,13.34324,11.8644,0.0,94.77965,0,1156,1.2152,11.01588,4.312,43690,0.0,1000.605,0.0,4.312,998.8038,0,82.024999494,11.76,131.4342,1.2642,1.35671665893,1.80078
2021-04-01T23:42:23Z,13.33773,9.186439,0.0,93.66102,0,1156,4.9588,11.15144,5.7232,43690,0.0,1000.605,0.0,4.978,998.8038,0,103.34374468,9.53,112.6132,2.842,3.06386272071,1.80078
2021-04-01T23:57:22Z,13.34876,7.864406,0.0,94.91526,0,1156,5.7428,10.71992,7.1344,43690,0.0,1000.605,0.0,7.134,998.8038,0,108.648923197,7.864,100.098,5.3116,5.44636449112,1.80078
2021-04-02T00:12:19Z,13.36533,8.40678,0.0,95.66102,0,1156,7.056,10.22288,7.84,43690,0.0,1001.286,0.0,7.134,999.4847,0,107.040038733,8.47,116.2475,6.389599,6.26266657738,1.80078
2021-04-02T00:27:21Z,13.36533,8.372883,0.0,96.0,0,1156,5.5468,9.974369,7.1344,43690,0.0,1001.286,0.0,5.743,999.4847,0,108.589461149,8.54,113.3353,5.5468,5.4704875503,1.80078
2021-04-02T00:42:21Z,13.36533,8.440678,0.0,96.27118,0,1156,4.4296,9.83881,6.6836,43690,0.0,1001.286,0.0,6.194,999.4847,0,108.932002966,8.58,113.5519,5.2332,5.11397632544,1.80078
2021-04-02T00:57:24Z,13.36533,7.661018,0.0,96.20339,0,1156,1.8816,9.750698,6.1936,43690,0.0,1001.286,0.0,5.272,999.4847,0,120.262186218,7.763001,308.0437,3.5672,3.4894958568,1.80078
2021-04-02T01:12:22Z,13.37637,7.254238,0.0,96.40678,0,1156,2.4696,9.479595,4.214,43690,0.0,1002.831,0.0,3.273,1001.031,0,318.733280774,7.39,305.3722,2.0384,2.13231666548,1.80078
2021-04-02T01:27:24Z,13.38796,6.648106,0.0,96.38122,0,1156,2.156,9.19041,4.214,43690,0.0,1002.831,0.0,3.293,1001.031,0,294.261220379,6.851,283.9283,2.5676,2.61259881657,1.80078
2021-04-02T01:42:23Z,13.39623,6.314678,0.0,96.52846,0,1156,1.8032,8.833446,3.3124,43690,0.0,1002.831,0.0,3.312,1001.031,0,289.185505003,6.382,284.2996,2.1952,2.17548333333,1.80078
2021-04-02T01:57:21Z,13.41398,5.540691,0.0,96.33738,0,1156,4.0964,8.501339,4.1552,43690,0.0,1002.831,0.0,4.155,1001.031,0,269.066903809,5.812,262.2825,2.2344,2.39411666607,1.80078
2021-04-02T02:12:22Z,13.42508,5.337395,0.0,96.43946,0,1156,4.5864,8.038189,4.7236,43690,0.0,1002.593,0.0,4.586,1000.793,0,261.018895579,5.337,264.4021,3.7632,3.69546982249,1.80078
2021-04-02T02:27:21Z,13.43613,5.303486,0.0,96.43946,0,1156,4.6648,7.64056,5.2724,43690,0.0,1002.593,0.0,5.272,1000.793,0,260.343177939,5.371,256.7701,4.1748,4.12307455621,1.80078
2021-04-02T02:42:22Z,13.43613,5.201756,0.0,96.5751,0,1156,3.332,7.355892,5.4684,43690,0.0,1002.593,0.0,3.861,1000.793,0,264.186717659,5.303,266.4967,4.0768,4.1141443787,1.80078
2021-04-02T02:57:26Z,13.44234,5.139099,0.0,96.58614,0,1156,3.7044,7.114155,4.704,43690,0.0,1002.593,0.0,4.116,1000.793,0,260.923185598,5.206,254.3193,3.8024,3.79283058824,1.80078
2021-04-02T03:12:24Z,13.44937,4.904026,0.0,96.55722,0,1156,5.096,6.940197,5.0568,43690,0.0,1003.563,0.0,5.057,1001.763,0,252.378232465,4.972,261.1471,3.92,3.94818224852,1.80078
2021-04-02T03:27:22Z,13.45498,4.769116,0.0004825271,96.62667,0,1156,3.0772,6.721042,5.292,43690,0.0337769,1003.563,2.412635e-06,3.94,1001.763,0,261.413927502,4.803,272.108,3.8416,3.84078816568,1.80078
2021-04-02T03:42:22Z,13.46155,4.400608,-0.0004825271,96.67054,0,1156,3.4692,6.547085,4.312,43690,0.0,1003.563,-2.412635e-06,3.998,1001.763,0,272.252304182,4.535,277.8677,3.6064,3.56418461538,1.80078
2021-04-02T03:57:27Z,13.46825,4.301155,-0.0004825924,96.74342,0,1156,3.9004,6.330196,4.8804,43690,0.0,1003.563,-2.412962e-06,4.88,1001.763,0,280.519073716,4.369,261.9626,3.6456,3.77438352941,1.80078
2021-04-02T04:12:25Z,13.46831,3.995922,0.0,96.74354,0,1156,4.606,6.113308,5.586,43690,0.0,1004.311,0.0,4.665,1002.51,0,265.439547985,4.132,270.9464,4.0572,4.10112586982,1.80078
2021-04-02T04:27:28Z,13.47383,3.860237,0.0,96.70962,0,1156,5.1352,5.873829,6.1152,43690,0.0,1004.311,0.0,5.39,1002.51,0,273.369504976,3.962,268.0322,5.0764,5.06233411765,1.80078
2021-04-02T04:42:25Z,13.47936,3.758472,0.0,96.74354,0,1156,5.096,5.679531,5.88,43690,0.0,1004.311,0.0,4.214,1002.51,0,270.096538502,3.792,265.4552,4.0964,4.11646390533,1.80078
2021-04-02T04:57:27Z,13.48488,3.792396,-0.0004826901,96.8453,0,1156,2.7244,5.50557,5.8016,43690,0.0,1004.311,-2.413451e-06,3.528,1002.51,0,281.228023586,3.691,299.5583,3.8024,3.90443529412,1.80078
2021-04-02T05:12:28Z,13.48488,3.724552,0.0,96.8453,0,1156,3.1948,5.354198,4.606,43690,0.0,1004.799,0.0,3.195,1002.999,0,289.597987538,3.792,285.7099,2.4892,2.47836235176,1.80078
2021-04-02T05:27:25Z,13.49593,3.554947,0.0,96.81138,0,1156,3.724,5.245754,3.9396,43690,0.0,1004.799,0.0,3.508,1002.999,0,293.902218236,3.623,290.6472,3.0184,2.94069585799,1.80078
2021-04-02T05:42:27Z,13.49593,3.554947,0.0,96.87922,0,1156,5.4684,5.139572,5.684,43690,0.0,1004.799,0.0,5.096,1002.999,0,271.47264171,3.589,269.8867,3.6456,3.77173176471,1.80078
2021-04-02T05:57:29Z,13.50145,3.487102,0.0,96.94706,0,1156,4.9196,5.031128,5.782,43690,0.0,1004.799,0.0,4.802,1002.999,0,265.648218711,3.589,270.1275,4.7824,4.79081647059,1.80078
2021-04-02T06:12:24Z,13.50145,3.622788,0.0,96.98098,0,1156,4.704,4.945274,5.2724,43690,0.0,1004.799,0.0,5.076,1002.999,0,274.638393851,3.589,282.6994,4.5864,4.57352662722,1.80078
2021-04-02T06:27:27Z,13.50145,3.487511,0.0,97.01582,0,1156,2.6852,4.879757,4.8804,43690,0.0,1004.799,0.0,3.195,1002.999,0,289.486055429,3.589,271.5269,2.94,3.11628470588,1.80078
2021-04-02T06:42:30Z,13.50167,3.454071,0.0,97.01689,0,1156,2.3912,4.83683,4.214,43690,0.0,1004.799,0.0,2.842,1002.999,0,275.473803906,3.59,276.9249,2.8812,2.96767058824,1.80078
2021-04-02T06:57:27Z,13.50744,3.454235,0.0,97.01726,0,1156,2.0972,4.793907,2.7636,43690,0.0,1004.799,0.0,2.372,1002.999,0,285.279798739,3.488,269.6764,2.0384,2.02633846154,1.80078
2021-04-02T07:12:29Z,13.50722,3.454228,0.0,97.01724,0,1156,2.2344,4.771313,3.724,43690,0.0,1004.244,0.0,3.724,1002.444,0,294.102660893,3.488,289.763,2.1364,2.25365411765,1.80078
2021-04-02T07:27:30Z,13.50713,3.317883,0.0,97.0497,0,1156,2.2344,4.708054,3.2928,43690,0.0,1004.244,0.0,3.195,1002.444,0,290.962089619,3.352,302.7401,2.4696,2.45922352941,1.80078